Temp
64 64 65 64 63 63 60 60 61 58 57 57 57 59 59 59 59 59 59 61 62 61 62 64 65 64 65 66 66 65 64 63 60 63 64 66 64 64 66 64 65 64 63
63 63 63 64 65 63 62 60 59 58 58 58 58 59 59 59 59 59 60 61 61 61 62 63 61 66 61 63 64 61 59 59 59 58 60 61 62 60 63 60 64 68 61
64 62 64 64 64 63 63 63 63 59 58 58 58 58 58 58 58 59 59 59 59 59 60 60 61 62 60 61 61 59 59 61 59 57 55 56 57 60 59 59 59 58 64
66 65 63 64 64 63 63 63 59 59 58 57 57 57 57 57 58 58 58 58 59 60 61 60 60 60 60 60 61 60 60 57 56 55 54 53 55 58 58 56 59 57 57
66 65 64 65 65 62 59 59 59 58 58 58 57 57 57 58 62 57 58 58 58 59 60 60 61 64 69 66 61 60 58 57 56 55 54 53 54 53 53 56 57 59 55
66 65 66 65 60 59 58 58 57 57 57 57 56 57 57 62 65 65 62 58 58 58 57 58 59 64 64 66 67 67 64 57 55 53 53 53 53 54 55 53 54 53 52
65 66 62 61 60 59 59 57 56 56 57 57 57 58 58 59 63 64 66 59 58 57 57 57 59 67 65 61 63 65 65 66 65 58 55 55 54 56 55 55 53 51 53
62 62 61 61 59 59 58 57 57 57 57 57 58 59 59 61 62 62 64 60 59 58 58 58 58 59 60 60 60 59 60 60 60 63 59 62 59 61 57 59 55 55 55
61 61 61 60 60 59 58 58 58 58 59 59 59 59 58 59 61 61 61 59 57 58 59 59 59 59 62 62 59 59 58 60 66 63 64 64 63 62 63 53 54 49 50
61 62 62 61 60 60 59 59 59 60 60 60 60 60 61 60 60 59 60 58 57 57 58 58 62 60 60 60 57 57 56 60 60 59 57 59 62 62 62 58 60 52 51
62 62 62 61 61 60 60 59 59 59 59 59 59 59 60 60 60 59 59 59 59 58 57 61 60 60 59 57 57 57 59 62 60 58 58 58 57 57 59 60 61 58 53
62 62 61 61 64 64 60 61 63 59 58 57 57 57 60 60 59 60 58 57 61 59 61 63 62 58 57 56 56 57 56 58 58 57 56 56 59 61 62 62 61 59 61
61 60 60 61 62 62 59 59 57 57 57 57 56 56 61 63 59 59 58 58 57 59 63 63 60 57 55 56 57 58 58 57 55 55 58 60 60 61 60 57 58 58 58
60 60 60 60 60 60 60 59 57 57 56 57 57 56 59 60 60 60 60 59 58 57 59 58 60 59 58 59 59 60 58 59 58 59 57 56 57 55 55 55 53 56 58
61 61 60 60 59 59 59 62 60 64 64 62 62 62 60 61 64 60 57 59 58 56 55 53 54 54 58 55 55 56 58 57 54 54 54 54 55 55 56 55 55 54 54
60 60 59 59 58 57 57 58 58 58 57 53 55 58 67 59 55 48 49 49 50 51 51 53 55 57 56 57 58 57 55 55 55 54 55 55 54 55 55 56 56 55 53
60 60 60 59 58 57 57 56 57 63 53 52 50 50 48 54 50 45 45 47 48 49 49 56 54 56 55 54 56 54 54 54 55 55 53 54 55 55 55 54 54 54 54
60 59 60 59 57 57 57 58 58 57 58 65 58 51 53 47 46 44 45 47 51 49 50 54 54 55 56 56 54 53 53 53 53 53 53 55 54 52 52 53 52 52 52
67 65 61 60 59 59 59 58 58 60 60 60 64 59 48 45 45 44 45 52 55 54 53 53 55 56 56 54 53 53 52 52 52 52 52 54 52 52 51 50 50 48 49
63 63 62 60 59 59 59 60 62 62 60 62 59 59 56 53 56 55 51 53 53 55 56 55 56 55 53 53 53 52 52 52 51 54 53 52 48 47 47 46 46 46 46
68 64 63 61 60 62 62 62 62 61 64 63 59 58 51 57 57 55 55 55 56 55 55 55 54 53 53 53 53 54 53 53 53 52 45 44 43 43 43 44 44 45 45
63 62 62 62 63 60 60 60 60 60 59 59 57 57 51 53 55 55 55 56 56 56 55 54 53 52 52 51 52 51 50 51 50 50 46 44 43 43 43 42 42 43 44
63 64 63 62 66 63 62 63 62 61 59 58 57 57 56 56 56 56 56 56 55 55 54 53 52 51 51 52 51 51 48 46 49 46 44 43 42 42 41 41 42 42 42
64 65 64 63 64 61 60 59 58 55 57 58 58 58 57 56 55 55 54 53 53 53 52 52 51 52 52 51 49 46 48 49 48 48 47 45 42 44 41 41 42 43 44
65 64 62 62 62 60 59 58 59 59 59 59 59 57 56 55 54 54 53 52 52 52 52 51 50 50 52 52 48 45 39 36 46 41 47 45 44 45 46 45 45 44 45
64 64 63 60 59 60 59 57 59 59 60 59 57 56 57 54 53 53 52 52 51 51 50 49 50 51 49 47 45 37 34 34 41 35 40 43 46 44 42 42 44 45 45
MSLP
1016.25 1016.89 1017.20 1017.58 1017.81 1018.24 1018.42 1019.04 1019.32 1019.73 1019.74 1019.95 1020.34 1020.44 1020.65 1020.70 1020.73 1020.67 1020.64 1020.63 1020.52 1020.39 1020.58 1020.68 1020.44 1020.19 1020.19 1020.37 1020.06 1020.47 1020.57 1020.67 1020.93 1020.01 1019.99 1019.91 1019.70 1019.28 1019.04 1018.79 1018.46 1018.23 1018.17
1017.08 1017.66 1018.01 1017.88 1017.96 1018.51 1018.97 1019.61 1019.75 1020.02 1020.06 1020.33 1020.41 1020.60 1020.78 1020.77 1020.77 1020.82 1020.75 1020.68 1020.71 1020.83 1020.64 1020.59 1020.51 1020.51 1020.50 1020.40 1020.47 1020.60 1020.86 1020.79 1020.83 1020.83 1020.37 1020.09 1019.73 1019.29 1019.07 1018.96 1018.60 1018.13 1018.20
1017.69 1018.11 1018.01 1018.29 1018.40 1018.87 1019.32 1019.55 1019.74 1019.94 1020.28 1020.42 1020.60 1020.81 1021.00 1021.03 1020.97 1020.99 1020.98 1020.89 1020.86 1020.81 1020.74 1020.58 1020.56 1020.50 1020.57 1020.67 1020.41 1020.74 1020.61 1020.68 1020.68 1020.91 1020.73 1020.12 1019.69 1019.26 1018.94 1018.58 1018.47 1018.45 1018.03
1017.68 1017.92 1018.24 1018.21 1018.48 1018.93 1019.25 1019.66 1019.89 1020.10 1020.28 1020.41 1020.65 1020.83 1020.90 1020.90 1020.96 1020.88 1020.89 1020.93 1020.82 1020.78 1020.68 1020.60 1020.55 1020.61 1020.57 1020.52 1020.66 1020.60 1020.62 1020.72 1020.82 1020.78 1020.63 1020.19 1020.06 1019.52 1019.35 1019.26 1018.74 1018.50 1018.17
1017.62 1017.78 1018.07 1018.30 1018.78 1019.10 1019.47 1019.84 1019.95 1020.06 1020.22 1020.37 1020.63 1020.88 1020.88 1020.84 1020.81 1020.91 1020.91 1021.00 1020.92 1020.80 1020.67 1020.70 1020.53 1020.35 1020.27 1020.28 1020.28 1020.13 1020.29 1020.44 1020.49 1020.45 1020.39 1020.25 1020.06 1019.76 1019.36 1018.94 1018.62 1018.27 1017.81
1017.35 1017.65 1018.03 1018.19 1018.80 1019.29 1019.49 1019.72 1019.86 1020.04 1020.15 1020.26 1020.56 1020.73 1020.83 1020.73 1020.58 1020.58 1020.61 1020.70 1020.66 1020.70 1020.66 1020.36 1020.24 1020.05 1019.95 1019.83 1019.67 1019.61 1019.58 1019.62 1019.63 1019.85 1019.89 1019.88 1019.45 1019.07 1018.83 1018.89 1018.71 1018.62 1018.05
1017.55 1017.76 1018.21 1018.48 1018.87 1019.14 1019.28 1019.61 1019.93 1019.99 1020.02 1020.22 1020.43 1020.43 1020.40 1020.25 1020.20 1020.11 1020.12 1020.17 1020.21 1020.21 1020.21 1020.10 1019.92 1019.60 1019.47 1019.48 1019.17 1018.97 1018.73 1018.65 1018.57 1018.76 1018.94 1018.67 1018.62 1018.23 1018.36 1018.29 1018.34 1018.09 1017.85
1017.62 1018.05 1018.13 1018.34 1018.93 1019.04 1019.30 1019.69 1019.82 1019.85 1019.88 1020.01 1020.13 1020.09 1020.04 1019.86 1019.72 1019.70 1019.60 1019.58 1019.61 1019.53 1019.54 1019.43 1019.35 1019.00 1018.87 1018.94 1018.79 1018.46 1018.04 1017.76 1017.47 1017.71 1017.66 1017.31 1017.29 1017.19 1017.67 1017.45 1017.58 1017.54 1017.18
1017.95 1018.01 1018.07 1018.36 1018.81 1019.02 1019.40 1019.62 1019.65 1019.58 1019.51 1019.61 1019.53 1019.60 1019.70 1019.36 1019.22 1019.11 1019.06 1019.09 1019.03 1018.93 1018.85 1018.78 1018.74 1018.61 1018.27 1018.09 1018.31 1018.26 1017.83 1017.25 1016.44 1016.41 1016.40 1016.19 1016.11 1015.98 1016.09 1016.95 1017.01 1017.51 1016.98
1017.77 1017.78 1017.88 1018.07 1018.48 1018.86 1019.07 1019.25 1019.12 1019.06 1019.05 1018.98 1019.06 1019.03 1018.86 1018.72 1018.62 1018.54 1018.52 1018.57 1018.67 1018.43 1018.12 1017.98 1017.85 1017.83 1017.61 1017.49 1017.74 1017.71 1017.50 1016.86 1016.45 1016.14 1016.22 1016.09 1015.79 1015.51 1015.35 1015.76 1015.48 1015.87 1015.93
1017.33 1017.51 1017.64 1017.91 1018.22 1018.39 1018.56 1018.70 1018.65 1018.69 1018.74 1018.74 1018.81 1018.46 1018.28 1018.17 1018.06 1017.94 1017.83 1017.97 1017.95 1017.98 1017.83 1017.37 1017.02 1016.86 1016.85 1016.83 1016.88 1017.00 1016.72 1016.10 1015.93 1015.90 1015.73 1015.51 1015.06 1014.80 1014.47 1014.19 1014.13 1014.39 1014.32
1017.07 1017.29 1017.49 1017.74 1017.83 1017.93 1018.15 1018.16 1018.22 1018.44 1018.58 1018.58 1018.53 1018.30 1017.87 1017.56 1017.45 1017.11 1016.86 1016.93 1016.85 1017.17 1016.93 1016.62 1016.39 1016.22 1016.20 1016.19 1016.17 1015.83 1015.61 1015.57 1015.68 1015.47 1015.33 1014.93 1014.54 1014.16 1013.87 1013.55 1013.06 1013.09 1012.78
1017.01 1017.30 1017.45 1017.50 1017.58 1017.58 1017.92 1018.11 1018.25 1018.20 1018.22 1018.14 1018.22 1018.02 1017.45 1016.84 1016.60 1016.37 1016.09 1015.87 1016.05 1016.55 1016.21 1016.02 1015.89 1015.79 1015.72 1015.61 1015.23 1014.82 1014.66 1014.92 1014.93 1014.86 1014.36 1013.84 1013.54 1013.32 1013.02 1012.67 1012.42 1011.95 1011.62
1016.90 1017.14 1017.31 1017.51 1017.48 1017.38 1017.46 1017.55 1017.71 1017.61 1017.58 1017.53 1017.48 1017.34 1016.90 1016.53 1016.24 1015.82 1015.78 1015.74 1015.57 1015.71 1015.70 1015.68 1015.50 1015.43 1015.31 1015.02 1014.86 1014.70 1014.46 1014.24 1014.08 1013.94 1013.74 1013.25 1012.77 1012.67 1012.51 1012.29 1011.90 1011.39 1011.08
1016.58 1016.79 1017.04 1017.17 1017.20 1017.20 1017.10 1016.88 1016.81 1016.34 1016.30 1016.36 1016.27 1016.31 1016.29 1016.02 1015.21 1015.04 1015.32 1015.31 1015.05 1014.95 1015.14 1015.13 1015.00 1014.87 1014.54 1014.44 1014.39 1014.19 1013.87 1013.57 1013.57 1013.34 1013.44 1013.23 1012.86 1012.31 1012.14 1011.96 1011.74 1011.51 1011.28
1016.18 1016.47 1016.64 1016.73 1016.72 1016.69 1016.58 1016.20 1015.53 1015.37 1015.18 1015.24 1015.09 1015.23 1014.93 1014.80 1014.34 1014.47 1014.51 1014.54 1014.76 1014.99 1015.29 1015.04 1014.68 1014.36 1014.03 1014.01 1013.60 1013.62 1013.45 1013.48 1013.39 1013.15 1013.00 1012.77 1012.62 1012.20 1011.62 1011.42 1011.37 1010.89 1010.70
1015.48 1015.84 1016.02 1016.04 1016.05 1015.99 1015.89 1015.89 1015.59 1014.39 1014.39 1014.13 1013.97 1013.97 1014.24 1014.04 1014.00 1014.46 1014.59 1014.46 1014.40 1014.57 1014.93 1014.70 1014.15 1013.88 1013.47 1012.89 1013.03 1013.03 1012.95 1012.91 1012.76 1012.69 1012.68 1012.49 1012.23 1011.98 1011.84 1011.47 1011.21 1010.95 1010.16
1014.89 1015.05 1015.19 1015.18 1015.18 1015.13 1015.07 1014.93 1014.81 1014.75 1014.51 1013.77 1013.22 1013.52 1013.28 1013.14 1012.95 1012.99 1013.16 1013.71 1013.83 1014.18 1013.37 1013.66 1013.61 1013.20 1012.89 1012.62 1012.08 1012.52 1012.61 1012.55 1012.48 1012.44 1012.33 1012.03 1012.01 1011.99 1011.83 1011.56 1011.32 1010.96 1010.47
1013.94 1014.20 1014.33 1014.24 1014.28 1014.27 1014.25 1014.21 1014.07 1013.99 1013.86 1013.68 1013.23 1012.86 1012.84 1012.74 1012.80 1012.99 1013.39 1013.48 1013.31 1013.09 1013.01 1012.88 1012.73 1012.35 1012.30 1011.87 1011.96 1012.07 1012.12 1012.10 1012.03 1011.95 1011.74 1011.62 1011.69 1011.83 1011.79 1011.64 1011.35 1010.88 1010.41
1013.28 1013.19 1013.30 1013.47 1013.55 1013.60 1013.58 1013.58 1013.43 1013.10 1013.21 1012.92 1012.63 1012.40 1012.41 1012.82 1012.86 1012.96 1013.01 1013.01 1012.94 1012.77 1012.48 1012.27 1012.11 1011.98 1011.81 1011.81 1011.61 1011.50 1011.51 1011.47 1011.51 1011.43 1011.42 1011.53 1011.71 1011.73 1011.73 1011.50 1011.10 1010.83 1010.36
1012.43 1012.47 1012.60 1012.81 1012.96 1012.94 1012.88 1012.81 1012.65 1012.64 1012.31 1012.04 1011.72 1011.61 1011.91 1012.35 1012.42 1012.54 1012.56 1012.55 1012.41 1012.19 1012.07 1012.08 1011.95 1011.92 1011.81 1011.65 1011.44 1011.20 1011.21 1011.19 1011.13 1011.32 1011.49 1011.62 1011.66 1011.69 1011.54 1011.25 1010.91 1010.45 1010.05
1011.66 1011.81 1012.07 1012.15 1012.25 1012.35 1012.15 1011.90 1011.78 1011.59 1011.55 1011.59 1011.69 1011.64 1011.53 1012.05 1011.99 1012.09 1012.18 1011.90 1011.79 1011.79 1011.78 1011.76 1011.69 1011.59 1011.48 1011.41 1011.06 1010.98 1011.09 1011.11 1010.93 1010.96 1011.01 1011.24 1011.40 1011.47 1011.36 1011.10 1010.74 1010.33 1009.81
1010.97 1011.23 1011.31 1011.40 1011.65 1011.41 1011.45 1011.44 1011.21 1010.99 1010.95 1010.96 1011.21 1011.34 1011.47 1011.32 1011.37 1011.49 1011.46 1011.52 1011.55 1011.51 1011.46 1011.51 1011.52 1011.42 1011.13 1010.83 1010.69 1010.60 1010.61 1010.71 1010.98 1011.17 1011.10 1011.18 1011.30 1011.33 1011.25 1010.98 1010.47 1009.98 1009.48
1010.36 1010.57 1010.70 1010.77 1010.84 1010.94 1011.07 1010.93 1010.81 1010.63 1010.49 1010.46 1010.40 1010.75 1010.70 1010.78 1010.93 1011.06 1011.17 1011.21 1011.26 1011.30 1011.28 1011.26 1011.11 1010.85 1010.49 1010.24 1010.06 1010.14 1010.04 1010.22 1010.36 1010.56 1011.16 1011.34 1011.64 1011.01 1010.48 1010.32 1009.96 1009.44 1008.92
1009.72 1009.88 1010.02 1010.16 1010.32 1010.40 1010.23 1010.30 1010.15 1010.08 1010.03 1010.12 1010.01 1010.15 1010.14 1010.33 1010.64 1010.76 1010.84 1011.00 1011.10 1011.09 1010.97 1010.82 1010.55 1010.32 1010.18 1009.94 1009.97 1010.06 1010.42 1010.57 1010.59 1010.65 1010.68 1010.97 1011.06 1010.30 1010.08 1009.80 1009.43 1008.88 1008.31
1009.05 1009.36 1009.55 1009.65 1009.77 1009.93 1010.16 1010.22 1010.27 1009.51 1009.78 1009.72 1009.71 1009.84 1009.98 1010.11 1010.47 1010.54 1010.55 1010.66 1010.73 1010.73 1010.73 1010.68 1010.41 1010.13 1009.97 1010.02 1010.12 1010.44 1010.72 1010.73 1010.60 1010.73 1010.78 1010.67 1010.42 1010.07 1009.84 1009.50 1008.99 1008.49 1007.94
Wind_Speed
7 6 8 7 7 5 6 6 5 4 5 6 5 4 4 3 2 3 2 0 2 2 2 3 3 3 2 2 3 2 2 2 1 2 0 3 4 4 4 4 4 4 4
5 5 6 6 7 7 7 5 5 5 4 4 4 3 1 1 2 1 1 2 1 1 1 2 3 3 3 3 1 1 0 0 1 3 2 2 3 4 3 4 4 3 4
6 5 6 7 7 6 5 5 4 5 5 4 4 3 3 3 3 3 1 1 1 2 3 3 4 4 3 2 2 3 1 1 0 2 3 2 2 3 4 3 4 5 5
7 7 6 6 7 6 5 5 5 5 5 3 3 3 3 2 3 3 2 4 3 4 4 4 5 4 4 4 4 5 3 2 2 2 3 3 2 4 2 3 5 1 4
6 6 6 6 6 5 5 5 5 5 5 5 4 3 4 4 4 5 4 5 5 5 5 5 5 7 9 7 3 5 4 4 4 3 3 2 3 2 2 3 4 5 4
6 6 6 6 6 5 5 5 5 4 4 4 4 5 6 4 9 10 8 6 6 6 6 6 6 9 8 10 10 10 8 5 4 3 3 4 4 3 2 3 2 3 4
6 7 6 6 6 6 6 5 5 6 5 5 6 6 7 6 9 10 10 6 6 6 7 6 6 5 7 6 8 9 9 9 12 5 6 6 4 4 3 4 4 4 5
5 6 6 6 6 6 5 6 5 4 5 5 6 7 6 7 11 12 13 6 6 8 7 7 6 8 7 7 7 7 8 7 8 7 9 12 9 9 6 6 5 5 6
6 6 6 6 6 6 6 7 5 4 5 6 5 6 6 7 10 11 7 5 6 8 7 7 7 7 13 14 6 7 8 9 9 14 16 17 16 17 15 2 5 2 5
6 7 7 7 6 6 6 7 4 4 4 2 4 5 7 7 8 9 7 3 6 5 6 7 11 10 12 13 6 6 6 10 7 7 5 9 17 15 17 12 8 6 5
6 6 5 5 6 6 5 3 3 3 3 4 5 6 7 6 8 12 12 5 6 4 5 7 6 12 13 11 8 6 9 9 8 6 7 7 7 8 8 8 9 8 6
7 6 6 6 5 4 4 4 5 5 5 6 5 6 6 7 10 13 15 15 10 7 8 7 7 11 13 12 7 14 15 12 6 7 6 8 8 8 8 7 9 8 9
6 6 5 6 6 6 5 6 4 5 4 6 4 5 8 6 5 11 14 14 11 8 8 9 11 11 11 9 15 18 14 5 5 6 9 8 7 7 7 5 6 8 8
7 6 5 6 6 6 4 5 5 5 5 6 5 6 7 6 7 5 5 5 4 8 7 6 9 10 10 12 9 9 5 6 7 7 6 4 4 3 3 3 3 5 6
7 6 6 5 6 6 6 7 6 8 8 7 7 7 6 8 10 9 6 5 5 6 4 3 3 4 6 4 4 5 6 4 4 2 3 4 4 2 3 4 4 4 6
6 5 5 5 5 4 4 6 9 16 12 14 18 11 9 15 17 3 12 11 8 7 2 4 5 5 5 4 3 4 3 3 4 3 4 4 5 6 5 6 6 6 8
7 6 5 5 4 4 3 4 5 6 12 15 16 18 15 19 11 2 6 11 12 5 2 6 5 6 5 5 5 4 4 4 4 4 4 5 5 5 6 6 6 7 8
7 10 6 5 5 4 5 5 4 4 5 9 6 8 9 10 13 14 13 7 3 6 3 6 6 5 5 6 2 4 4 4 4 5 5 5 3 3 4 6 5 6 7
9 6 6 5 5 6 5 5 5 5 6 6 7 4 1 4 2 1 4 3 3 3 3 4 4 4 5 3 3 4 5 4 4 4 3 2 3 2 4 4 5 7 7
6 10 9 5 5 5 5 6 7 8 5 7 5 5 2 2 1 2 4 4 4 4 4 3 4 4 4 4 4 4 4 4 3 0 2 2 3 2 4 5 5 4 4
7 6 9 5 5 6 6 7 7 5 7 5 6 4 2 3 4 3 3 4 4 3 2 3 4 4 4 4 5 5 2 3 3 3 3 1 2 3 4 5 4 5 5
6 5 5 6 5 4 6 5 5 5 4 4 3 3 7 4 4 4 4 3 2 2 3 3 3 3 4 4 4 3 3 4 4 4 4 1 2 4 4 4 5 5 5
5 5 5 4 5 6 4 4 5 5 4 5 4 4 4 4 3 3 3 4 3 3 2 2 4 4 5 4 4 4 5 5 2 0 1 1 2 3 4 5 6 6 6
5 6 6 5 4 4 5 5 5 7 6 5 5 5 4 4 4 5 4 3 2 2 3 4 3 5 5 5 3 3 4 5 4 5 2 1 5 5 3 4 6 8 8
6 6 5 5 5 6 6 5 5 5 5 5 4 4 5 5 5 4 3 3 2 3 3 3 3 4 5 5 6 5 4 5 4 3 2 2 8 6 5 6 8 8 8
5 4 5 3 4 2 1 5 7 4 4 3 4 5 5 5 5 4 4 4 2 1 1 1 3 4 2 4 5 7 5 4 2 3 3 4 5 5 5 6 9 6 7
Wind_Direction
99 118 121 115 105 88 90 92 99 109 107 113 118 110 117 115 80 94 76 189 44 45 348 340 342 356 39 13 65 35 45 67 218 289 235 313 311 331 336 348 328 337 333
99 122 130 112 107 116 109 119 132 127 125 132 130 125 140 167 162 175 342 66 116 90 50 49 20 5 2 356 273 330 207 244 146 294 289 283 309 315 292 304 315 319 319
136 130 123 124 112 112 126 118 117 119 138 144 148 164 179 175 183 231 256 283 310 326 324 349 327 344 340 325 316 289 267 247 265 231 283 297 285 307 325 323 321 316 307
139 141 137 131 131 140 138 136 141 158 156 165 189 186 195 213 235 248 269 290 303 309 317 316 304 291 289 300 287 277 254 251 265 279 283 282 272 291 296 283 312 280 298
134 128 133 129 132 130 139 168 170 168 177 185 172 194 211 214 220 226 230 244 251 268 281 286 278 279 279 263 231 263 222 218 221 242 270 255 248 279 277 290 306 314 278
142 138 148 141 141 161 162 167 164 182 188 169 191 206 228 240 236 227 215 226 237 246 263 270 268 286 285 284 286 275 229 216 240 198 229 246 254 241 264 266 266 313 315
155 150 154 148 158 176 175 175 195 197 191 209 223 223 242 249 255 255 250 222 231 237 246 259 274 260 274 280 282 288 295 258 226 201 242 250 262 233 216 273 235 220 255
158 165 164 159 177 180 179 200 213 204 214 218 235 237 242 257 253 253 256 235 232 239 239 246 248 273 265 252 265 275 268 258 243 225 219 247 230 256 212 249 236 268 281
176 180 174 171 181 186 201 224 232 221 221 225 223 245 230 253 247 250 248 228 236 240 236 238 235 251 265 265 248 259 271 275 265 241 239 243 236 239 238 170 257 209 278
193 192 183 183 193 199 211 227 236 224 233 224 272 238 250 263 270 265 262 241 263 260 263 256 252 237 253 266 269 280 285 270 279 292 274 250 247 252 243 202 233 223 220
191 189 187 187 190 199 198 197 211 212 252 275 272 276 274 259 269 257 251 227 229 246 248 271 257 250 257 261 256 246 243 255 263 251 262 264 262 257 257 241 226 217 215
165 164 173 188 203 196 211 247 223 224 247 261 267 280 269 260 241 262 253 219 219 212 245 251 254 257 260 263 256 242 247 256 265 265 265 266 267 269 270 258 252 232 233
154 178 193 206 221 223 214 244 244 238 239 259 249 262 277 277 261 250 269 270 230 224 243 248 255 262 274 278 264 260 267 263 254 261 267 272 266 258 266 259 262 249 247
179 194 210 214 231 240 231 218 216 225 231 239 247 254 260 267 269 263 262 287 292 211 248 260 256 261 263 260 285 288 270 258 257 264 270 259 259 267 273 263 247 270 264
193 204 220 227 243 258 244 240 228 243 219 236 241 236 243 266 261 231 201 223 216 217 198 242 251 240 256 260 256 259 268 265 232 208 243 266 280 257 273 276 264 292 293
195 210 218 213 223 226 246 289 243 244 252 235 248 236 253 239 265 200 198 211 213 210 210 241 255 244 242 258 261 270 259 229 260 242 247 249 251 261 273 286 277 277 288
196 206 223 222 230 245 238 220 270 297 234 254 248 249 232 251 276 151 177 193 202 144 244 275 242 259 259 214 238 228 233 244 260 258 252 262 270 280 289 294 296 291 285
198 208 212 223 231 240 241 253 241 245 280 296 269 246 265 238 241 219 206 176 195 234 211 244 249 244 249 252 248 238 252 257 252 258 251 251 265 285 299 303 294 289 287
195 208 223 231 232 234 245 255 253 254 252 259 287 240 204 262 261 99 155 258 266 271 223 230 239 251 261 297 258 245 241 248 252 254 254 265 277 272 280 271 273 279 284
208 218 215 226 242 249 246 248 261 259 242 242 250 255 207 176 262 237 210 244 261 257 251 259 271 282 287 263 262 249 248 255 283 317 79 32 329 296 284 289 287 282 280
211 217 225 235 245 251 251 256 263 257 245 245 237 225 229 208 263 266 268 258 243 248 275 273 295 295 289 288 279 274 273 263 172 160 152 223 281 302 298 284 284 285 282
204 210 216 222 241 252 244 237 239 230 225 227 254 270 253 213 234 235 231 238 235 217 220 234 276 278 273 267 256 252 237 216 200 202 165 205 301 311 310 297 295 287 283
222 217 234 237 208 218 208 195 205 221 237 233 230 224 205 207 209 202 178 183 183 208 263 311 277 271 262 252 264 241 210 201 251 339 169 165 277 298 305 296 293 295 287
224 231 239 239 231 188 207 223 237 226 230 230 189 198 175 160 151 146 153 161 186 245 255 247 266 276 279 268 241 202 170 153 156 141 94 329 297 282 274 283 281 281 279
224 235 234 224 211 205 222 235 253 237 227 212 190 160 155 161 160 151 150 157 190 229 274 274 261 273 310 290 208 188 90 96 100 106 150 265 272 299 292 291 289 290 287
229 231 243 235 204 131 192 253 272 235 207 186 145 156 180 178 184 182 181 178 180 208 284 34 28 20 8 35 115 121 126 135 162 225 280 274 285 294 282 285 291 292 284